Regional Weather Roundup
Issued by NWS

Home | Current Version | Previous Version | Graphics & Text | Print | Product List | Glossary On
Versions: 1 2 3 4 5 6 7 8 9 10 11 12 13 14 15 16 17 18 19 20 21 22 23 24 25 26 27 28 29 30 31 32 33 34 35 36 37 38 39 40 41 42 43 44 45 46 47 48 49 50
000
ASUS43 KOAX 240410
RWRNE

WEATHER ROUNDUP FOR NEBRASKA
NATIONAL WEATHER SERVICE OMAHA NE
1100 PM CDT THU MAR 23 2017

NOTES: SATELLITE DATA IS BEING USED TO AUGMENT CLOUD COVER ABOVE
       12000 FEET.
       "FAIR" INDICATES FEW OR NO CLOUDS BELOW 12,000 FEET WITH NO
       SIGNIFICANT WEATHER AND/OR OBSTRUCTIONS TO VISIBILITY.

  * THESE STATIONS DO NOT REPORT WEATHER SUCH AS RAIN...SNOW OR FOG.

NEZ001>004-019>022-054>056-240500-
NEBRASKA PANHANDLE

CITY           SKY/WX    TMP DP  RH WIND       PRES   REMARKS
SCOTTSBLUFF    LGT RAIN  45  41  86 N18       29.81R
ALLIANCE       LGT RAIN  44  42  93 N18G29    29.80R
CHADRON        CLOUDY    44  39  82 NE17      29.86R
KIMBALL        RAIN      44  44 100 N23G31    29.79S
SIDNEY         MOCLDY    46  42  86 N28G40    29.75R
$$

NEZ057>060-069>072-079>082-240500-
SOUTHWEST NEBRASKA

CITY           SKY/WX    TMP DP  RH WIND       PRES   REMARKS
NORTH PLATTE   LGT RAIN  55  50  83 NE29G39   29.69F
IMPERIAL       MOCLDY    61  50  67 N24G39    29.57R
LEXINGTON      CLOUDY    66  44  45 SE13G31   29.61R
MCCOOK         CLOUDY    67  47  48 S31G41    29.53F
OGALLALA       CLOUDY    56  42  60 NE20G25   29.73R
$$

NEZ005>010-023>029-035>040-094-240500-
NORTH CENTRAL NEBRASKA

CITY           SKY/WX    TMP DP  RH WIND       PRES   REMARKS
VALENTINE      CLOUDY    51  45  79 N14       29.76R
AINSWORTH      CLOUDY    51  50  96 NE14      29.76R
BROKEN BOW     TSTM      56  31  38 N13G26    29.67R
O`NEILL        HVY RAIN  54  53  99 N10       29.72F
ORD            CLOUDY    55  51  86 NE15      29.65R
THEDFORD       CLOUDY    55  43  63 NE14      29.77R
$$

NEZ041-046>049-061>064-073>077-083>087-240500-
SOUTH CENTRAL NEBRASKA

CITY           SKY/WX    TMP DP  RH WIND       PRES   REMARKS
GRAND ISLAND   LGT RAIN  63  55  75 SW28G48   29.63R
AURORA         CLOUDY    71  51  48 SW36G41   29.66R
HASTINGS       LGT RAIN  61  52  72 SW12G26   29.71R
HEBRON         CLOUDY    71  51  49 S14G23    29.67R
HOLDREGE       CLOUDY    61  49  64 SW5       29.60F THUNDER
KEARNEY *      CLOUDY    64  46  52 S7        29.62F
YORK           CLOUDY    72  50  46 S39G52    29.59R HAZE
$$

NEZ011>018-030>034-042>045-240500-
NORTHEAST NEBRASKA

CITY           SKY/WX    TMP DP  RH WIND       PRES   REMARKS
NORFOLK        CLOUDY    62  52  69 VRB7G33   29.68R
ALBION         CLOUDY    60  54  78 N20       29.67R
BLAIR          CLOUDY    71  49  46 S25G39    29.61S
FREMONT        CLOUDY    69  49  48 SE13G22   29.62R
TEKAMAH        CLOUDY    59  48  67 S3        29.65S
WAYNE          CLOUDY    56  50  81 NW3       29.63R
$$

NEZ050>053-065>068-078-088>093-240500-
SOUTHEAST NEBRASKA

CITY           SKY/WX    TMP DP  RH WIND       PRES   REMARKS
LINCOLN        CLOUDY    70  50  49 S31G41    29.60R
OMAHA EPPLEY   CLOUDY    71  49  45 S33G44    29.61F
BEATRICE       CLOUDY    69  51  52 S15G22    29.68R
FALLS CITY     MOCLDY    70  47  43 S16       29.72R
NEBRASKA CITY  CLOUDY    68  42  37 S20       29.71S
PLATTSMOUTH    CLOUDY    70  43  37 S20G26    29.68F
$$

NEZ044-045-051>053-067-240500-
OMAHA AREA

CITY           SKY/WX    TMP DP  RH WIND       PRES   REMARKS
OMAHA EPPLEY   CLOUDY    71  49  45 S33G44    29.61F
BLAIR          CLOUDY    71  49  46 S25G39    29.61S
FREMONT        CLOUDY    69  49  48 SE13G22   29.62R
MILLARD        CLOUDY    73  51  47 SE25G39   29.62F
OFFUTT AFB     CLOUDY    71  49  44 SE22G33   29.66R
PLATTSMOUTH    CLOUDY    70  43  37 S20G26    29.68F
WAHOO          FAIR      70  48  44 S22G32    29.61R
$$



USA.gov is the U.S. government's official web portal to all federal, state and local government web resources and services.